EW5134 Weather Reports


time (UTC)temp
C
wind
direction
speed
KPH
gust
KPH
rain 1hr
cm
rain 24hr
cm
rain mn
cm
humidity
%
barometer
mb
20260507200939 9 319 9.7 17.7 0.00 0.00 0.00 62 1010.8
20260507195439 9 302 9.7 17.7 0.00 0.00 0.00 64 1010.9
20260507194634 9 274 11.3 24.1 0.00 0.00 0.00 63 1011.1
20260507192438 10 315 14.5 25.7 0.00 0.00 0.00 59 1011.2
20260507190937 10 306 12.9 22.5 0.00 0.00 0.00 62 1011.2
20260507190011 10 271 12.9 27.4 0.00 0.00 0.00 62 1011.6
20260507185426 10 277 12.9 29.0 0.00 0.00 0.00 60 1011.4
20260507182419 9 321 12.9 25.7 0.00 0.00 0.00 65 1011.7
20260507180921 9 321 12.9 25.7 0.00 0.00 0.00 66 1011.8
20260507180115 8 276 14.5 20.9 0.00 0.00 0.00 65 1012.1
20260507173921 9 266 14.5 20.9 0.00 0.00 0.00 66 1012.1
20260507173127 8 273 12.9 22.5 0.00 0.00 0.00 68 1012.2
20260507170921 8 269 14.5 25.7 0.00 0.00 0.00 67 1012.4
20260507165419 8 261 11.3 24.1 0.00 0.00 0.00 67 1012.5
20260507163922 8 303 12.9 24.1 0.00 0.00 0.00 71 1012.5
20260507162417 8 190 4.8 17.7 0.00 0.00 0.00 73 1012.7
20260507160918 7 346 9.7 19.3 0.00 0.00 0.00 75 1012.7
20260507155417 7 334 9.7 19.3 0.00 0.00 0.00 74 1012.9
20260507153919 7 198 6.4 19.3 0.00 0.00 0.00 74 1012.9
20260507153116 6 299 8.0 17.7 0.00 0.00 0.00 75 1012.9
20260507150918 6 319 9.7 17.7 0.00 0.00 0.00 75 1013.1
20260507145415 6 292 9.7 22.5 0.00 0.00 0.00 74 1013.0
20260507144615 6 306 9.7 19.3 0.00 0.00 0.00 74 1012.8
20260507142415 6 315 9.7 20.9 0.00 0.00 0.00 74 1013.1
20260507140917 6 309 11.3 19.3 0.00 0.00 0.00 75 1013.1
20260507135415 6 298 11.3 20.9 0.00 0.00 0.00 74 1013.4
20260507133915 6 319 6.4 16.1 0.00 0.00 0.00 74 1013.3
20260507132416 5 321 4.8 19.3 0.00 0.00 0.00 73 1013.3
20260507130915 5 300 11.3 24.1 0.00 0.00 0.00 73 1013.5
20260507125411 5 295 9.7 19.3 0.00 0.00 0.00 80 1013.6
20260507123843 5 302 8.0 6.4 0.00 0.00 0.00 80 1013.5
20260507122200 4 311 6.4 14.5 0.00 0.00 0.00 81 1013.4
20260507122106 4 311 8.0 16.1 0.00 0.00 0.00 82 1013.3
20260507115905 3 269 4.8 11.3 0.00 0.00 0.00 87 1013.3
20260507114404 3 317 4.8 11.3 0.00 0.00 0.00 91 1013.4
20260507112200 3 285 0.0 6.4 0.00 0.00 0.00 94 1013.1
20260507112053 3 114 0.0 6.4 0.00 0.00 0.00 95 1012.9
20260507105159 2 123 1.6 4.8 0.00 0.00 0.00 96 1012.8
20260507103701 1 283 1.6 3.2 0.00 0.00 0.00 95 1013.1
20260507102201 0 355 1.6 3.2 0.00 0.00 0.00 94 1012.8
20260507100702 0 355 0.0 1.6 0.00 0.00 0.00 94 1012.6
20260507100554 0 355 1.6 6.4 0.00 0.00 0.00 93 1012.6
20260507093702 1 293 1.6 4.8 0.00 0.00 0.00 92 1012.5
20260507092144 1 293 1.6 3.2 0.00 0.00 0.00 91 1012.6
20260507091345 2 293 1.6 4.8 0.00 0.00 0.00 90 1012.9
20260507085140 2 317 0.0 4.8 0.00 0.00 0.00 90 1013.0
20260507083642 2 315 1.6 6.4 0.00 0.00 0.00 90 1012.9
20260507082142 2 323 1.6 6.4 0.00 0.00 0.00 90 1013.1
20260507080640 2 348 1.6 3.2 0.00 0.00 0.00 89 1012.8
20260507075140 3 344 1.6 3.2 0.00 0.00 0.00 87 1012.7
20260507073641 3 268 1.6 4.8 0.00 0.00 0.00 87 1012.7
20260507072140 3 285 3.2 8.0 0.00 0.00 0.00 86 1012.6
20260507071354 3 320 4.8 11.3 0.00 0.00 0.00 87 1012.6
20260507065140 3 266 4.8 12.9 0.00 0.00 0.00 88 1012.7
20260507063641 3 274 4.8 12.9 0.00 0.00 0.00 89 1012.8
20260507062140 3 315 8.0 19.3 0.00 0.00 0.00 89 1012.8
20260507060638 3 304 8.0 17.7 0.00 0.00 0.00 91 1013.0
20260507055138 4 318 9.7 19.3 0.00 0.00 0.00 93 1012.8
20260507054342 4 290 9.7 16.1 0.00 0.00 0.00 93 1012.8
20260507052139 4 311 11.3 22.5 0.00 0.00 0.00 94 1013.0
20260507050635 4 311 8.0 17.7 0.00 0.00 0.00 95 1013.0
20260507045829 5 309 6.4 12.9 0.00 0.00 0.00 95 1012.9
20260507043636 5 281 9.7 19.3 0.00 0.00 0.00 95 1012.9
20260507042134 5 325 12.9 22.5 0.00 0.00 0.00 96 1012.5
20260507040633 5 323 8.0 6.4 0.00 0.00 0.00 96 1012.3
20260507034941 5 329 8.0 16.1 0.03 0.03 1.83 96 1012.1
20260507033456 6 270 4.8 14.5 0.03 0.03 1.83 96 1012.2
20260507031942 6 290 3.2 8.0 0.03 0.03 1.83 96 1012.3
20260507030444 6 213 3.2 9.7 0.00 0.00 1.80 96 1012.4
20260507024925 6 267 3.2 9.7 0.00 0.00 1.80 96 1012.3
20260507023427 5 273 4.8 11.3 0.00 0.00 1.80 96 1012.3
20260507021918 5 273 3.2 4.8 0.00 0.00 1.80 96 1012.3
20260507020421 5 244 0.0 1.6 0.00 0.00 1.80 96 1012.3
20260507014918 5 242 0.0 0.0 0.00 0.00 1.80 96 1012.5
20260507013418 5 242 0.0 3.2 0.00 0.00 1.80 96 1012.5
20260507011920 5 242 0.0 3.2 0.00 0.00 1.80 96 1012.3
20260507010418 5 242 1.6 4.8 0.00 0.00 1.80 96 1012.4
20260507004919 5 258 1.6 4.8 0.00 0.00 1.80 96 1012.3
20260507003420 5 267 1.6 6.4 0.00 0.00 1.80 96 1012.2
20260507002617 5 276 4.8 11.3 0.00 0.00 1.80 96 1011.8
20260507000420 5 266 3.2 11.3 0.00 0.00 1.80 96 1011.6
20260506234915 5 273 3.2 9.7 0.00 0.00 1.80 96 1011.6
20260506233418 5 277 3.2 6.4 0.00 0.00 1.80 96 1011.4
20260506231916 6 277 3.2 6.4 0.00 0.00 1.80 96 1011.1
20260506230418 5 262 1.6 4.8 0.00 0.00 1.80 96 1010.6
20260506224916 6 248 1.6 6.4 0.00 0.00 1.80 96 1010.9
20260506223417 6 320 4.8 12.9 0.00 0.00 1.80 96 1011.0
20260506221916 6 332 6.4 14.5 0.00 0.00 1.80 96 1011.0
20260506221117 5 296 6.4 12.9 0.00 0.00 1.80 97 1011.1
20260506214846 5 344 9.7 14.5 0.00 0.00 1.80 97 1011.0
20260506213347 6 324 8.0 16.1 0.00 0.00 1.80 98 1010.7
20260506212427 5 316 12.9 20.9 0.00 0.00 1.80 97 1010.5
20260506211848 5 306 11.3 20.9 0.00 0.00 1.80 97 1010.7
20260506205545 5 327 9.7 20.9 0.00 0.00 1.80 97 1010.4
20260506204041 5 319 9.7 20.9 0.00 0.00 1.80 97 1010.4
20260506201847 5 332 11.3 22.5 0.00 0.00 1.80 98 1010.1